Wind_Speed
28 28 28 28 28 27 26 24 23 22 21 20 18 17 17 17 17 17 17 16 16 17 18 19 21 23 23 24 24 25 25 26 27 28 29 30 31 33 35 37 39 40 40 40 40 40 39 39 39 39 38 36 36 35 34 33 32 30 29 29 29 29 29 28 28 30 30 30 31 32 33 33 33 32 34 36 38 41 41 42 42 42 42 42 42 42 43 44
29 29 29 29 29 28 27 26 24 23 22 21 20 19 18 18 18 19 18 18 18 18 19 20 21 23 24 25 25 25 26 27 27 28 29 30 32 34 36 37 39 41 42 42 42 41 41 40 39 39 38 37 37 37 37 36 35 33 31 30 30 30 30 30 30 31 32 33 33 33 33 34 34 34 35 37 39 41 41 42 42 41 41 42 43 43 43 44
30 30 30 30 30 29 28 27 26 24 23 22 21 20 19 19 19 19 19 18 18 18 19 20 21 22 24 25 25 26 26 27 27 28 29 31 34 35 37 38 39 41 42 42 43 44 44 43 42 41 40 39 39 39 39 39 38 36 34 32 32 32 32 31 32 33 34 34 34 34 33 34 36 36 37 39 40 41 41 41 41 40 41 43 44 44 45 46
32 32 32 32 31 30 29 28 27 26 25 24 23 22 21 20 19 19 19 19 19 19 19 20 21 22 23 24 25 26 27 27 27 28 30 33 35 37 38 39 40 42 42 43 44 45 45 45 44 43 42 41 41 41 41 42 41 40 37 34 33 34 34 33 34 35 36 36 35 34 35 35 36 38 40 41 42 43 42 41 40 41 42 43 45 46 47 48
33 33 33 33 32 32 30 29 28 27 26 25 24 23 22 21 20 19 19 19 19 19 20 20 21 22 23 24 25 26 27 27 28 29 31 34 36 37 38 40 41 43 44 44 44 43 43 42 43 43 43 43 43 42 42 42 42 42 40 37 35 36 36 36 36 37 37 36 36 36 37 36 36 39 42 43 44 44 44 42 42 43 44 45 47 48 50 51
35 35 35 34 34 33 32 30 30 29 28 27 26 25 24 23 21 20 19 19 20 20 21 21 22 23 23 24 25 25 26 27 28 30 33 35 37 38 39 40 42 44 44 44 42 41 40 40 40 41 42 43 43 42 41 40 40 41 41 39 37 37 38 38 38 38 38 37 37 37 38 37 35 38 43 44 45 45 45 45 45 46 47 48 50 52 53 53
36 36 36 36 35 34 33 32 31 30 29 28 27 26 25 24 22 21 20 20 21 21 22 22 23 24 25 26 26 26 27 28 29 31 34 36 38 39 40 41 43 44 44 42 40 39 39 39 39 40 41 41 41 41 40 39 38 39 40 41 39 38 38 39 39 39 39 38 38 38 39 38 37 39 43 45 45 46 47 46 47 48 50 52 53 54 55 56
38 38 38 37 36 36 34 33 32 31 30 29 28 27 26 25 24 22 21 21 21 22 23 24 25 26 27 27 27 27 28 29 30 33 35 37 39 40 41 43 44 43 42 41 39 38 39 39 39 39 39 39 38 38 39 38 38 38 39 40 40 38 38 39 40 40 39 39 39 39 40 40 40 40 41 44 46 47 48 48 49 50 52 53 54 56 57 58
39 39 39 39 38 37 36 34 33 32 31 30 29 28 27 26 25 24 23 22 23 23 24 25 26 27 28 29 29 29 29 30 32 34 36 37 39 41 42 44 45 43 42 41 39 38 38 38 38 38 38 37 37 36 36 36 37 37 38 39 40 39 38 38 39 39 40 40 40 40 41 42 42 40 39 42 45 48 50 50 51 52 53 54 56 57 58 58
41 41 40 40 39 38 37 36 34 33 32 31 30 30 29 27 26 25 24 24 24 25 26 27 28 28 29 30 30 30 30 31 33 35 36 38 39 41 43 44 45 43 42 41 40 39 39 39 38 37 37 36 36 35 34 34 34 34 35 37 38 39 39 38 37 38 39 39 40 40 41 41 40 38 39 43 47 50 51 52 53 54 55 56 59 60 59 59
42 42 42 41 40 39 38 37 36 34 33 32 31 31 30 29 28 26 25 25 25 26 27 28 29 29 30 30 31 31 32 33 34 36 37 38 39 41 42 44 45 43 42 42 42 41 40 40 39 39 37 36 35 36 35 34 33 33 34 35 35 36 37 37 37 37 38 39 39 39 39 39 39 39 42 46 48 50 52 53 55 56 57 59 62 62 62 62
44 44 43 43 42 41 40 38 37 36 35 33 32 32 31 30 29 28 27 26 26 27 28 29 30 31 31 31 31 32 33 34 36 38 38 39 40 41 42 44 44 42 42 43 43 43 42 41 40 40 39 37 35 34 35 34 34 34 33 34 34 34 34 35 36 36 37 38 37 37 39 41 42 44 45 47 48 51 53 55 56 57 59 62 63 63 63 63
45 45 45 44 43 42 41 40 38 37 36 34 33 33 32 31 30 30 29 28 27 28 29 30 31 32 32 32 33 33 34 36 37 39 40 40 40 41 42 44 44 42 41 42 44 44 44 43 41 41 41 40 37 35 34 34 34 33 33 33 33 32 33 34 35 35 36 38 38 39 41 44 46 46 46 47 49 52 53 54 55 58 60 62 62 63 64 64
46 46 46 46 45 44 42 41 40 38 37 35 34 34 33 32 32 32 31 30 29 30 30 31 32 33 34 33 34 35 36 38 39 40 41 41 41 41 43 44 44 41 40 42 44 45 45 44 42 41 41 41 39 36 35 34 34 33 32 32 32 32 33 35 37 38 39 42 43 43 44 46 47 47 47 47 50 53 54 55 56 59 60 61 62 63 64 64
47 47 47 47 46 45 44 42 41 39 38 37 35 35 35 33 33 33 33 32 31 31 32 32 33 35 36 35 36 37 38 40 40 41 42 42 41 42 43 44 44 41 40 41 44 45 45 44 43 41 40 41 40 39 37 35 35 35 34 34 33 34 34 36 38 41 42 44 45 46 46 47 47 47 47 49 52 54 56 57 59 60 62 62 63 63 63 64
48 48 48 47 47 46 45 43 42 41 39 38 37 36 36 35 34 34 34 33 32 32 33 34 35 36 38 38 37 38 40 41 41 42 43 43 42 42 43 44 44 42 40 41 43 44 44 44 43 42 41 41 41 40 40 39 37 36 38 38 37 37 37 37 39 41 43 44 45 46 47 48 48 47 49 53 56 57 58 61 62 63 64 64 63 63 64 65
48 48 48 48 47 47 46 44 43 42 40 40 38 37 36 36 35 35 35 34 33 34 35 36 36 38 39 39 39 40 40 41 41 43 44 44 43 43 44 44 43 42 41 41 42 44 44 43 44 43 42 42 41 40 40 41 40 39 39 40 41 41 41 40 39 41 43 44 46 47 48 50 50 50 51 55 57 58 60 62 64 65 66 66 65 65 66 67
48 48 48 48 48 47 46 45 44 43 42 41 40 38 37 36 36 36 36 35 34 35 37 38 38 39 41 40 40 41 41 41 42 44 45 45 44 44 44 45 44 43 43 42 42 44 44 43 44 44 44 43 42 40 39 39 40 41 41 41 42 44 44 42 41 42 43 45 47 48 49 52 53 52 52 55 57 59 61 62 63 65 66 66 67 68 69 68
48 49 49 49 48 48 47 46 45 44 43 42 41 40 39 38 37 37 38 36 35 36 38 41 40 41 42 42 42 42 41 41 43 45 45 45 45 45 46 46 45 43 43 43 43 43 44 44 44 44 45 44 43 42 41 40 40 41 42 42 43 44 45 45 43 43 44 44 46 48 49 52 54 53 54 56 57 59 61 62 63 64 66 67 69 70 69 68
48 49 49 49 49 48 47 46 45 45 44 43 42 41 41 40 39 38 39 38 37 38 40 42 43 43 43 43 43 43 43 43 45 46 47 47 46 46 47 47 46 44 43 42 43 44 44 43 44 44 45 46 45 45 44 43 42 42 42 42 42 42 43 45 44 44 45 45 47 49 49 51 54 54 55 57 58 61 62 63 64 65 67 68 70 69 68 67
48 49 49 49 49 49 48 47 46 45 45 45 44 42 42 42 41 40 40 40 39 40 42 43 44 45 45 45 45 44 44 45 46 47 48 48 47 47 48 48 47 45 44 42 42 44 44 43 44 44 45 46 46 46 46 45 44 43 43 43 43 43 43 45 45 45 46 47 49 50 49 51 54 55 57 59 62 63 64 65 65 66 68 69 68 66 66 67
48 48 49 50 50 49 49 48 47 46 46 46 45 44 43 42 42 40 41 43 43 43 45 46 46 47 47 47 47 46 46 47 48 48 49 49 49 49 49 48 47 45 44 43 42 44 44 43 43 44 45 46 47 47 47 46 46 45 45 44 45 45 44 46 47 46 48 49 50 50 48 50 54 57 60 63 65 65 66 66 66 67 68 67 66 65 67 69
48 48 49 49 50 49 49 49 48 47 46 46 46 46 45 44 43 41 40 42 45 47 49 49 50 50 50 49 48 48 48 49 49 50 50 50 50 51 50 49 48 46 44 43 43 43 44 43 43 44 46 47 48 47 47 47 48 48 47 46 47 48 47 47 48 48 50 51 50 48 47 49 55 60 64 66 67 68 68 68 68 69 69 67 66 67 69 71
48 48 49 49 49 49 49 49 48 48 47 47 47 47 47 46 44 43 41 41 44 49 51 52 52 52 52 51 50 49 49 49 50 51 51 50 51 52 51 49 48 46 44 43 43 44 44 43 44 46 47 48 49 48 47 46 48 49 49 49 48 49 49 49 49 48 49 51 51 51 49 50 56 62 65 68 69 70 71 70 71 71 70 69 68 69 71 74
48 48 49 49 49 49 49 49 49 49 48 48 48 49 49 48 45 44 44 43 44 49 52 53 54 54 53 52 51 49 49 49 50 51 52 52 52 52 50 49 46 45 44 43 44 44 44 45 46 47 49 49 49 49 48 47 47 49 51 51 50 50 51 51 50 48 48 49 52 56 55 52 56 62 64 67 69 71 72 73 73 73 72 71 70 72 74 76
48 48 49 49 49 49 50 50 50 50 50 50 50 50 50 50 47 46 47 45 45 49 52 53 55 55 54 52 51 50 49 50 51 52 53 53 52 52 50 48 45 45 45 43 44 44 44 45 47 49 50 51 50 49 49 48 48 49 51 52 52 52 52 52 52 51 51 50 54 61 62 57 56 59 63 68 71 73 75 75 75 75 74 73 73 75 76 79
49 49 50 50 50 50 50 51 52 52 52 52 51 52 52 51 49 48 49 47 45 48 52 54 55 55 54 52 50 50 50 50 52 52 54 54 53 52 51 50 47 46 46 44 44 46 44 45 48 49 51 51 50 50 50 50 50 51 52 53 53 53 53 54 53 53 53 52 57 64 67 62 56 59 66 72 73 75 76 77 77 77 76 75 76 77 79 82
50 50 51 51 51 52 52 52 53 53 53 52 52 53 52 51 50 50 51 47 44 48 53 55 55 54 53 52 51 51 51 52 53 53 55 54 53 53 52 52 50 48 48 45 44 46 45 45 48 48 49 49 50 51 51 51 52 52 52 52 53 53 54 55 54 55 55 55 58 64 66 64 59 63 71 74 74 76 78 79 79 78 77 77 77 78 81 83
51 51 51 51 52 52 53 53 54 54 53 52 52 53 52 52 52 52 52 48 46 49 53 54 55 54 53 52 52 52 53 54 54 55 56 55 54 54 54 54 53 51 51 48 45 44 44 45 46 46 48 49 51 53 53 53 53 53 53 52 53 54 55 56 56 57 57 56 59 64 66 67 65 67 73 75 76 78 80 80 79 78 78 77 78 80 82 84
54 53 53 53 53 53 54 54 55 54 54 53 53 53 53 53 53 53 52 50 50 51 52 54 55 54 53 53 53 53 54 55 56 58 58 56 55 56 57 57 56 54 53 52 47 43 43 44 45 47 50 51 53 53 53 54 54 53 53 52 53 55 57 58 58 60 59 58 63 67 70 72 70 70 75 77 78 80 80 80 78 78 78 78 79 82 84 86
55 55 55 55 55 56 56 57 57 57 56 56 55 55 55 54 55 54 51 51 52 52 52 54 54 54 54 53 54 56 57 57 58 60 59 57 57 58 60 60 59 56 55 55 49 44 44 45 46 48 51 53 55 55 55 55 54 54 54 54 55 57 59 59 60 63 63 64 67 69 72 74 73 74 76 78 80 81 80 79 79 79 79 80 82 84 87 90
57 56 56 56 56 57 58 59 59 59 59 58 57 56 55 55 53 51 51 53 54 51 53 55 54 54 55 55 57 58 59 59 60 61 61 59 58 60 63 64 63 61 57 55 51 46 44 46 48 51 54 56 57 58 58 57 56 56 56 58 60 62 62 62 64 66 67 68 68 70 74 74 74 76 78 80 83 82 81 81 81 81 81 83 85 87 90 93
59 58 58 58 57 58 59 59 59 59 59 58 57 55 54 53 49 49 52 56 56 54 54 56 55 55 56 56 58 60 61 62 62 62 62 61 60 62 65 66 68 67 62 56 50 44 42 45 52 55 57 59 61 61 61 59 59 58 59 63 67 68 68 66 67 69 68 69 68 71 74 75 75 76 79 83 86 85 84 83 83 84 85 86 88 90 93 95
61 61 61 60 60 61 61 61 61 60 59 58 56 55 53 50 48 50 54 57 59 56 55 57 57 57 57 58 60 62 64 64 63 64 63 61 61 62 65 68 70 71 68 61 52 45 43 47 54 57 58 61 63 63 63 63 62 61 64 68 70 71 72 69 69 69 69 69 68 71 74 76 77 78 81 86 88 88 87 85 85 87 87 89 90 93 95 96
63 63 62 62 63 64 64 65 64 63 62 59 58 56 52 49 50 54 56 57 59 58 57 58 58 58 59 60 63 65 67 66 64 65 64 63 63 63 66 70 72 74 73 67 59 52 50 52 57 59 60 63 65 65 67 68 67 65 68 71 71 72 72 71 70 70 72 71 69 70 74 76 78 79 83 87 89 90 87 85 88 89 89 90 93 95 98 98
66 64 63 64 65 66 67 67 66 66 64 62 61 59 53 50 53 57 58 59 61 60 60 59 59 60 61 63 65 67 69 68 66 65 64 64 64 64 67 71 73 76 76 72 67 62 59 57 59 62 64 67 69 69 70 72 71 70 71 73 73 73 72 72 71 72 76 77 73 72 75 77 79 81 84 88 90 89 86 87 89 90 90 92 94 97 99 100
70 68 66 66 67 69 69 69 69 68 66 66 65 60 55 54 57 61 63 63 62 62 62 62 62 64 65 66 67 69 70 69 68 67 66 65 64 65 68 72 75 77 78 76 73 72 69 63 61 65 68 70 73 73 73 74 75 75 76 75 76 74 73 73 75 76 79 81 77 74 75 78 80 83 85 88 90 88 87 90 91 90 92 94 96 98 100 101
74 72 69 70 72 74 73 72 71 71 69 68 66 62 59 58 60 65 67 65 64 65 65 66 67 68 68 68 69 70 71 69 68 68 68 68 67 67 71 74 76 78 79 78 77 77 76 69 65 67 71 73 76 77 77 78 78 78 79 78 78 77 75 75 78 81 83 85 82 77 77 77 80 84 88 89 89 89 91 93 92 92 94 96 97 100 102 104
76 74 72 72 77 79 77 75 75 74 72 69 66 65 64 63 64 68 69 69 69 69 69 70 71 71 70 71 72 72 72 70 69 70 71 70 70 71 72 75 77 80 80 80 80 80 81 77 71 70 73 76 78 78 79 80 80 80 81 79 78 79 77 77 80 83 86 88 86 84 81 77 79 85 89 90 91 93 96 96 95 96 97 99 100 102 104 107
80 78 74 75 80 82 81 79 77 75 73 70 68 68 68 67 67 69 71 72 72 72 73 74 74 74 73 74 75 75 75 73 72 73 74 73 74 73 74 76 80 81 82 82 83 84 85 84 77 74 77 78 78 80 80 80 82 83 82 80 80 80 80 80 80 82 88 89 88 90 86 79 82 88 90 92 94 96 99 98 98 99 100 102 104 105 108 110
82 80 77 78 84 85 85 83 78 76 75 72 71 72 72 71 71 72 74 76 76 75 76 76 76 77 77 78 79 79 78 76 75 77 77 77 78 76 76 79 81 83 84 84 86 87 89 88 83 80 80 80 80 80 80 81 83 83 81 80 82 82 82 83 82 83 88 89 90 94 88 80 86 92 92 95 97 98 99 99 100 102 103 105 107 109 112 114
83 80 78 81 85 87 88 85 80 77 75 73 74 76 76 75 74 75 77 78 78 78 78 78 78 79 80 81 82 82 81 80 79 81 83 81 79 79 80 83 84 85 87 87 88 90 92 91 87 84 83 83 82 81 81 82 83 82 80 81 82 82 83 85 86 87 89 89 92 96 90 83 88 92 93 97 100 100 100 101 103 105 107 109 111 112 115 117
81 81 80 81 83 86 87 84 80 79 77 77 79 79 78 78 77 77 79 79 79 79 79 79 80 82 82 83 84 84 84 84 83 85 86 83 81 83 85 86 87 88 90 91 91 92 93 92 90 87 86 85 84 83 83 84 83 81 81 82 82 82 84 86 90 92 91 90 94 96 91 87 91 93 95 99 102 102 103 105 107 110 111 112 113 115 117 120
82 82 81 80 81 84 84 81 80 80 80 80 81 80 79 80 79 78 80 81 81 81 80 80 81 82 82 84 84 84 85 86 85 86 87 85 84 86 89 89 90 91 92 92 93 94 93 92 91 91 90 87 84 84 85 84 83 81 81 82 82 83 85 88 92 95 93 92 95 95 92 92 94 96 98 102 103 104 107 109 111 113 114 115 116 117 119 122
86 83 79 77 79 81 79 78 81 82 81 81 82 80 80 80 79 79 81 82 81 81 80 80 81 82 83 84 84 83 84 85 87 87 86 86 87 89 91 92 91 91 92 93 94 94 93 92 92 93 94 91 87 87 88 86 84 82 81 83 84 85 87 90 94 96 96 96 94 93 95 96 95 99 103 104 105 106 110 113 114 115 116 116 117 119 122 125
90 86 81 78 79 79 77 78 81 81 80 82 83 80 79 79 78 80 82 82 81 81 82 81 82 83 84 84 83 84 84 86 89 88 86 88 90 92 93 93 92 92 93 94 94 94 94 92 91 93 96 94 93 93 93 91 89 86 85 85 85 87 90 93 96 96 99 100 94 92 99 98 95 102 108 107 107 109 112 114 115 116 117 118 120 122 125 128
93 88 83 83 85 83 79 79 82 81 82 85 84 79 77 78 78 79 81 81 82 84 83 83 83 84 85 85 87 87 87 88 89 88 88 91 94 95 94 93 93 93 94 95 94 95 95 92 90 94 96 94 95 97 97 96 94 91 90 89 87 89 93 95 96 97 101 104 96 94 100 99 98 106 111 109 110 112 114 116 117 118 119 121 123 125 128 130
95 91 88 89 89 86 83 82 85 86 85 86 83 79 77 77 78 80 80 82 84 85 85 85 84 85 87 89 92 91 88 89 90 90 92 96 97 96 95 93 94 94 94 94 94 96 97 93 92 95 96 94 96 98 100 100 99 96 95 92 89 92 96 96 96 99 104 105 100 97 99 98 103 111 112 111 114 116 117 118 119 121 122 124 126 128 131 132
98 94 93 94 94 91 89 88 89 89 86 86 85 80 78 79 80 81 83 86 86 86 88 87 84 86 90 93 94 92 88 90 93 94 96 98 98 97 95 94 93 93 94 95 95 97 99 96 95 97 98 96 97 100 102 103 103 100 97 94 95 98 98 97 99 103 106 106 102 101 99 100 108 114 114 115 119 119 120 121 122 123 126 128 130 131 133 135
100 98 98 100 100 96 94 92 91 89 87 87 85 79 78 82 82 84 89 90 87 87 89 88 85 88 93 94 94 90 88 93 98 98 98 100 98 97 96 94 93 94 95 96 97 99 101 100 98 101 101 99 99 102 104 105 106 102 96 97 103 103 100 100 104 107 109 108 105 104 104 106 112 116 116 119 122 123 124 124 125 127 130 131 133 134 135 137
103 103 104 106 103 99 98 98 96 94 90 86 81 78 81 84 84 89 95 92 87 89 90 89 89 93 96 95 92 90 91 98 102 100 99 100 98 97 96 95 95 96 96 97 99 101 103 103 103 104 106 103 102 104 106 108 109 102 97 101 107 105 102 104 107 109 111 111 108 108 110 112 115 117 119 121 124 125 126 126 128 130 132 134 135 136 137 138
106 108 108 110 108 104 102 101 100 99 91 84 83 84 85 84 86 93 97 92 88 90 92 93 94 96 96 94 92 93 97 102 103 101 100 100 98 97 97 96 96 97 97 98 100 102 105 106 106 108 110 108 107 108 109 111 109 103 101 105 106 105 106 108 108 108 110 111 110 111 113 116 117 119 121 123 125 126 127 128 130 132 134 135 136 137 138 140
Wind_Direction
222 222 222 221 222 223 225 227 229 233 238 242 243 244 247 250 252 254 259 265 272 279 287 293 297 301 305 308 312 315 318 321 324 326 328 329 329 328 328 328 328 328 329 329 329 328 328 327 325 323 321 320 320 321 322 319 314 308 305 305 304 304 304 305 307 307 306 307 309 311 312 312 314 317 318 319 318 319 320 321 322 324 326 328 330 331 332 331
222 223 222 222 222 223 225 227 229 232 236 241 243 244 247 250 254 256 260 266 272 278 284 289 292 297 301 305 309 313 316 319 322 324 327 327 327 326 326 327 327 328 328 328 328 328 327 325 323 321 319 317 316 316 316 316 314 307 301 300 300 299 299 301 301 301 303 304 306 308 309 311 314 318 320 320 319 319 321 322 323 326 327 328 329 329 329 328
223 224 224 223 223 224 226 228 229 232 235 239 242 245 246 249 253 258 262 267 272 278 282 286 289 293 298 302 306 310 314 317 320 323 325 325 324 324 325 326 327 327 327 327 326 326 325 323 320 318 317 315 314 314 313 313 313 309 302 297 296 295 295 297 298 299 300 303 306 307 310 312 316 320 322 321 319 319 321 321 323 325 326 326 326 325 325 324
223 224 225 224 224 225 226 228 230 232 234 237 241 245 246 248 252 257 263 269 274 278 281 284 287 291 295 300 304 308 312 316 320 322 323 323 323 324 324 325 326 326 325 325 325 324 323 321 319 316 314 313 311 311 311 310 310 308 305 299 293 291 292 295 296 298 300 303 306 307 310 314 318 321 322 321 318 319 319 320 323 324 324 323 323 323 323 323
224 225 226 226 226 226 227 229 230 232 234 237 240 244 248 249 252 256 263 270 275 278 280 283 286 290 293 297 302 306 311 316 318 320 321 321 322 322 323 324 325 324 324 324 324 324 323 321 318 316 313 311 310 310 309 309 308 306 305 302 294 290 290 292 294 297 300 303 306 308 311 315 319 320 320 318 317 316 317 320 323 323 322 321 321 322 323 324
224 226 227 227 228 228 228 229 231 232 234 237 240 244 248 251 253 257 262 269 274 278 281 284 287 290 293 296 300 305 310 313 316 318 318 319 320 321 322 323 323 323 323 324 325 325 325 323 321 319 316 314 311 311 311 310 309 306 304 303 298 293 290 291 293 296 300 304 306 308 311 314 317 318 317 315 314 313 315 320 322 321 320 321 322 324 325 325
225 227 227 229 230 230 230 231 232 233 235 237 240 243 247 251 254 257 261 266 273 278 282 285 289 292 295 298 300 304 308 312 314 316 317 319 319 320 321 322 323 323 323 324 325 326 325 324 324 323 321 318 315 313 313 312 311 308 305 303 301 298 294 292 293 296 300 303 305 307 309 311 313 316 315 312 311 312 315 319 319 319 320 322 325 326 326 325
226 227 228 229 231 232 232 233 234 235 236 237 240 243 247 250 254 257 261 265 271 277 282 286 290 293 297 299 301 304 307 310 313 315 317 318 319 319 320 322 324 324 323 323 325 326 327 327 326 325 324 323 320 317 315 314 314 312 309 306 305 304 299 294 293 294 298 300 302 304 306 308 311 315 313 310 311 313 315 317 318 319 322 324 326 326 326 326
226 227 229 230 231 233 234 234 235 236 237 239 241 244 247 250 253 256 260 265 271 276 281 286 289 293 296 299 301 304 307 309 311 313 315 317 318 319 320 323 324 323 322 323 325 326 328 329 328 326 326 326 325 322 320 318 317 316 314 312 311 310 305 299 295 294 296 299 301 302 305 308 312 316 314 311 312 313 315 317 318 321 323 324 325 325 327 328
227 228 229 231 232 234 235 236 236 237 239 240 242 245 248 251 253 256 260 266 271 277 281 285 289 292 296 299 301 303 305 307 309 311 314 316 318 318 320 323 324 322 321 321 323 325 327 329 330 328 327 326 325 324 323 321 320 319 317 316 315 313 310 306 301 297 297 299 301 304 307 309 313 315 314 312 312 313 315 318 321 323 324 325 325 326 327 328
228 228 229 231 233 235 237 237 238 238 239 241 243 245 249 252 255 257 260 265 271 276 281 286 289 292 295 298 300 301 303 304 307 309 313 315 317 317 319 322 322 321 319 319 321 322 324 327 328 328 327 327 326 324 324 323 321 321 320 319 318 315 313 310 306 303 302 302 304 307 309 311 313 314 314 314 314 315 317 321 323 324 325 325 326 326 326 327
229 229 230 232 233 235 237 238 239 240 241 242 244 247 250 254 257 259 261 265 270 275 281 285 289 292 294 296 297 299 300 302 305 308 311 314 316 316 318 320 321 319 317 318 319 320 321 323 325 325 325 327 327 324 323 323 322 322 321 321 320 318 316 312 309 307 305 305 308 310 311 312 314 316 316 316 316 317 320 322 324 324 324 324 324 324 325 325
230 230 230 232 234 236 237 239 240 241 242 244 246 249 251 255 258 261 263 266 270 275 280 284 288 291 293 295 296 297 298 300 302 306 310 313 315 316 317 319 319 316 316 317 318 319 319 320 322 322 323 324 325 324 322 321 321 321 322 322 321 320 318 315 313 311 310 310 312 313 313 314 316 317 317 317 317 319 321 322 321 321 322 322 322 322 323 323
231 231 231 232 234 236 238 240 241 242 243 245 247 249 252 255 259 262 265 267 271 276 280 283 287 290 292 293 295 296 296 297 300 304 308 311 314 316 317 318 317 314 313 316 317 318 318 318 319 320 322 322 322 322 320 318 317 318 319 318 318 318 318 318 316 315 314 315 315 316 316 315 317 317 317 318 318 318 320 319 318 319 320 319 320 320 321 321
233 233 232 233 235 236 238 240 242 243 244 246 248 250 254 256 259 263 266 269 273 277 280 283 286 289 292 293 294 295 296 296 298 301 306 311 313 315 316 317 316 313 311 314 317 317 318 318 318 319 320 320 321 321 319 316 314 313 314 313 313 313 315 315 314 312 312 314 314 314 315 315 316 317 318 317 316 316 316 316 317 318 318 318 318 319 319 320
235 234 234 235 236 237 239 241 243 244 246 247 249 251 254 257 260 263 267 270 274 278 281 283 286 289 291 293 294 295 295 295 296 301 306 310 311 313 316 316 315 312 309 312 316 317 318 319 318 317 318 320 321 320 319 316 314 312 312 312 311 311 312 311 310 308 309 311 311 312 314 314 315 316 317 317 316 315 315 316 318 318 317 317 318 318 318 318
237 237 236 237 238 238 240 242 244 245 247 249 250 252 255 258 262 264 266 269 274 278 281 283 286 289 290 293 294 294 294 294 297 302 305 307 309 311 315 316 314 312 309 311 315 317 319 320 319 318 319 320 319 318 317 316 314 312 310 309 308 308 308 308 307 306 308 310 311 312 313 313 313 315 316 317 317 316 316 317 318 317 317 317 317 317 317 317
240 239 238 238 239 240 241 243 244 246 248 250 252 254 255 259 262 265 267 269 274 278 281 283 285 288 289 291 293 293 293 295 298 301 302 304 306 309 313 315 314 313 310 310 314 316 318 320 320 320 320 319 318 316 314 313 311 310 308 306 306 306 306 307 307 306 308 311 311 312 314 313 313 315 317 317 316 315 315 316 316 315 315 315 315 316 316 317
243 242 241 241 241 242 243 244 246 247 249 251 253 255 258 260 261 265 268 271 275 278 280 283 285 287 289 291 292 292 293 296 298 299 300 302 305 308 312 314 313 312 310 309 311 314 316 318 319 319 319 318 318 317 315 312 310 308 306 305 305 306 306 307 307 308 310 311 310 312 314 312 312 314 316 315 314 313 313 313 313 313 313 312 313 315 317 318
246 245 244 244 244 244 245 246 247 248 250 252 254 257 259 261 263 266 269 272 275 278 280 283 285 287 289 290 291 291 292 294 296 297 298 301 304 308 311 313 312 310 309 308 309 311 313 315 316 317 317 318 318 317 316 314 311 309 307 306 305 305 305 306 307 308 309 310 310 311 313 311 310 312 313 313 312 312 312 312 311 312 311 312 314 316 318 319
247 247 247 246 246 246 247 248 249 250 252 254 256 258 260 263 265 268 272 275 277 279 280 282 283 284 286 287 287 288 290 292 294 295 297 300 304 307 310 311 311 310 310 308 308 309 311 313 314 315 316 317 317 317 315 313 311 309 308 306 305 303 303 304 305 307 308 308 308 310 312 311 311 313 313 312 312 312 311 311 312 313 313 314 315 317 319 319
249 249 248 248 248 248 248 249 251 252 254 255 258 260 262 264 267 270 273 276 279 280 280 281 282 283 284 285 286 287 288 290 293 294 296 300 303 307 309 310 309 309 309 308 308 308 310 312 313 314 315 315 315 315 314 312 310 308 307 306 305 303 303 304 306 308 308 307 308 309 311 311 312 314 313 312 313 313 312 313 315 315 315 316 316 318 320 320
251 251 250 250 250 250 250 251 252 254 255 257 259 261 264 266 268 271 273 277 280 282 282 283 284 285 285 286 287 289 289 290 292 293 296 300 303 306 308 308 308 307 306 307 307 308 309 311 312 312 312 312 313 314 313 313 311 310 309 308 307 305 305 305 305 307 308 307 307 308 309 311 313 314 313 314 315 314 314 316 316 315 316 316 317 319 319 322
253 253 253 252 252 252 253 253 255 256 257 259 261 262 265 267 269 272 274 276 279 281 283 284 285 286 287 288 289 289 289 289 290 292 295 299 303 305 306 306 306 305 305 305 306 306 308 309 310 309 309 310 311 312 312 312 311 310 309 308 306 305 305 305 305 307 308 308 309 308 309 313 315 315 315 315 315 314 314 315 315 314 315 315 317 319 320 322
255 255 255 254 254 255 255 256 257 258 259 260 261 263 266 267 269 272 274 276 278 280 281 283 284 285 287 288 289 288 288 288 289 291 295 299 302 303 304 304 304 303 303 304 305 306 308 309 309 309 309 309 310 310 310 310 309 308 308 307 307 306 306 306 306 307 307 308 309 308 309 315 316 314 313 313 313 312 312 313 313 313 313 315 318 319 321 323
256 256 256 256 256 256 257 258 258 259 260 261 262 264 266 268 269 271 273 275 278 279 280 282 283 284 286 287 287 287 286 286 288 292 295 299 301 301 302 302 302 301 302 303 304 305 308 310 310 309 309 309 310 309 308 308 307 307 307 307 307 307 307 307 306 307 307 308 309 306 308 314 315 312 311 311 311 311 311 311 312 312 313 317 319 320 322 322
257 257 257 257 257 258 258 258 259 260 261 262 263 265 266 268 270 271 273 275 278 280 280 281 282 284 285 286 286 285 285 285 288 292 295 298 299 299 300 300 300 300 301 302 304 305 309 310 309 309 309 310 310 307 306 304 304 306 306 306 306 305 305 305 306 306 307 309 309 307 310 313 314 312 310 310 311 311 310 311 312 313 315 318 319 320 321 320
258 258 258 258 258 259 259 259 260 260 261 262 264 265 267 269 270 272 273 275 278 279 279 280 282 283 284 285 285 284 284 286 289 292 294 296 297 298 299 299 299 300 300 301 303 305 309 309 308 309 310 310 309 306 305 303 303 305 305 304 304 304 305 305 306 306 307 310 309 308 310 312 314 313 310 311 312 310 310 311 312 314 316 318 319 320 319 318
260 259 259 259 259 260 260 260 260 261 262 263 264 266 267 269 271 272 274 276 277 276 277 279 281 282 283 283 283 283 284 286 289 291 293 294 295 296 297 298 299 300 300 301 303 306 309 308 307 308 309 309 308 307 306 304 303 303 303 304 304 305 305 305 307 307 308 311 310 310 311 311 313 313 311 311 312 310 310 311 312 314 315 317 318 319 318 318
261 261 261 261 261 261 261 261 262 262 263 263 264 266 268 270 271 272 275 278 277 275 276 277 279 280 281 281 282 283 284 287 289 290 292 293 293 294 296 297 298 299 299 300 302 306 307 306 307 307 308 309 308 308 308 306 304 303 303 303 304 305 305 305 308 307 309 312 311 312 313 313 314 314 311 312 311 310 310 311 312 313 314 316 318 318 318 318
260 261 262 262 262 262 263 263 263 263 263 264 265 266 268 270 271 275 277 277 276 276 277 277 278 279 280 281 282 283 284 286 288 289 291 291 291 292 294 296 296 297 298 299 302 306 306 305 305 306 309 310 309 308 309 309 306 304 304 304 304 304 304 306 307 307 310 312 313 313 313 313 315 314 313 312 311 310 311 312 312 312 314 317 318 318 318 317
260 260 261 262 263 264 264 265 265 265 265 265 266 267 269 270 274 278 278 276 275 276 277 278 279 280 280 281 282 283 285 286 287 289 290 290 290 291 293 295 295 295 296 297 300 304 305 304 304 306 309 310 309 308 309 310 308 305 305 305 305 303 302 304 305 307 310 312 312 313 312 313 315 315 314 313 311 311 312 312 312 313 316 318 318 318 317 317
260 261 261 262 264 264 265 266 266 267 267 267 267 268 269 272 277 279 277 277 277 277 277 278 279 279 280 281 282 282 283 284 286 288 289 289 289 290 292 293 294 294 295 296 298 301 301 301 302 305 308 308 308 308 308 308 306 305 306 306 306 304 302 304 304 306 309 310 312 312 312 313 314 315 315 312 311 312 312 311 313 315 316 318 318 318 317 318
261 261 262 263 263 264 264 265 265 266 266 266 266 267 270 274 278 277 275 276 278 278 278 278 278 279 280 281 281 282 283 284 286 287 288 288 288 289 291 291 292 293 295 295 297 298 298 299 300 303 305 306 306 307 308 307 305 304 306 306 306 305 305 305 305 306 307 309 312 312 312 313 314 315 314 312 311 312 311 313 315 315 317 318 318 318 318 319
260 261 262 263 263 264 264 264 264 264 264 264 264 265 269 274 276 274 274 275 276 278 278 278 279 280 280 281 282 282 283 284 286 287 288 287 287 288 289 290 291 292 294 296 297 298 298 300 301 303 305 305 306 307 308 308 305 304 306 307 306 306 306 306 306 308 308 308 311 312 312 313 313 314 313 311 311 311 312 315 316 316 318 319 319 319 320 321
259 260 261 262 263 263 263 263 263 263 263 263 263 264 268 273 273 272 272 272 273 275 276 278 280 280 280 281 282 282 283 284 286 286 286 286 287 288 288 288 289 291 293 295 298 298 299 302 303 304 306 305 305 306 307 308 306 306 307 307 307 307 306 306 307 308 308 309 310 312 312 312 313 314 312 311 311 311 314 316 316 317 319 319 319 320 321 322
259 259 260 262 262 262 262 263 263 263 263 263 264 265 268 272 273 272 271 270 272 274 276 278 279 279 280 281 282 282 283 285 286 286 286 286 287 288 287 287 288 290 292 294 297 298 299 302 303 305 305 304 304 306 307 307 307 307 307 307 307 307 306 306 308 309 309 308 310 312 312 312 314 314 312 310 311 313 315 315 315 318 319 320 320 320 321 324
260 260 261 262 263 262 262 262 262 262 262 264 265 266 268 270 271 272 272 273 273 274 276 278 278 279 281 282 282 283 283 284 285 286 287 288 288 288 287 287 288 289 290 293 295 297 298 301 303 304 303 303 304 306 306 306 306 306 306 306 307 307 305 307 309 311 310 309 310 312 312 314 317 315 312 311 312 314 314 314 317 319 320 320 321 321 323 325
260 260 261 262 263 263 263 262 262 262 264 266 267 266 267 268 269 271 273 274 274 275 276 278 279 281 283 283 283 283 283 285 286 287 287 288 288 287 287 288 288 289 290 293 294 295 297 299 302 303 301 302 304 305 305 305 305 306 306 306 307 306 306 307 310 311 311 310 311 311 312 317 319 314 312 314 315 314 313 315 318 319 320 321 321 322 325 327
259 259 260 261 263 264 264 263 263 264 266 267 268 268 269 269 270 272 274 275 275 276 278 279 280 282 283 283 283 283 284 285 286 287 287 287 287 286 287 288 288 289 291 292 294 295 297 299 301 301 300 301 303 303 304 304 304 305 305 307 307 306 307 309 310 312 311 311 313 311 312 320 320 314 315 317 316 314 314 316 318 319 320 321 322 325 327 328
258 258 259 260 262 263 264 263 263 264 265 266 267 269 270 270 271 273 274 276 277 278 279 280 281 282 283 283 283 284 284 285 285 286 285 285 285 287 288 288 288 290 291 292 293 295 296 298 300 300 300 301 301 302 302 303 303 303 305 306 306 306 309 310 311 311 310 312 313 311 314 322 319 314 318 318 315 314 316 317 319 320 322 322 324 327 328 329
258 258 258 258 260 262 263 264 264 264 265 266 268 268 269 270 271 273 274 276 277 279 279 280 281 282 282 283 283 284 284 284 284 284 283 283 285 287 287 287 288 289 290 291 293 295 296 297 299 300 300 300 300 300 301 301 301 302 304 305 305 307 310 311 312 310 310 312 312 310 315 321 316 315 319 316 314 316 318 319 320 322 323 324 326 327 328 329
260 259 258 258 260 262 263 265 266 266 266 267 267 267 269 270 271 272 274 275 276 277 278 279 281 282 282 283 283 284 284 284 283 282 282 284 286 287 286 287 288 288 290 292 294 295 296 297 298 299 299 299 299 300 300 300 301 302 304 304 305 307 309 311 311 310 310 312 310 311 317 318 315 317 318 314 314 318 320 320 322 323 324 325 326 328 328 329
262 261 260 261 262 263 264 265 266 266 266 266 266 267 268 269 271 272 273 273 274 275 276 278 280 281 282 282 283 283 283 282 281 281 283 285 286 286 286 286 287 289 291 294 294 294 295 297 298 299 298 297 298 299 298 298 300 302 302 303 305 307 309 310 310 308 310 311 310 314 317 316 316 318 316 313 316 320 321 322 323 324 324 325 326 327 328 329
263 263 264 264 265 265 266 266 265 265 265 265 265 266 267 268 270 271 271 272 274 275 276 277 278 279 280 281 281 281 281 281 281 282 284 286 286 285 285 287 289 291 293 294 294 294 296 297 298 299 298 298 299 298 298 299 300 301 302 304 306 308 310 310 308 308 310 309 312 317 315 313 318 318 313 314 319 322 322 322 323 323 324 325 326 327 328 329
263 264 266 267 267 266 267 266 266 267 267 267 266 266 267 268 270 271 272 274 275 275 275 276 277 278 278 279 278 278 279 280 282 284 286 287 286 286 286 289 291 293 293 293 294 295 296 297 298 298 298 299 300 299 299 300 301 303 305 306 308 310 311 308 307 309 310 309 313 316 312 313 318 316 313 317 321 322 322 322 323 324 324 326 326 327 328 329
265 266 267 266 266 266 266 267 268 269 268 267 267 267 269 271 272 273 274 275 275 275 275 276 276 277 277 277 277 277 279 281 283 286 287 286 286 286 288 290 292 293 293 294 295 296 296 297 299 298 297 299 300 300 300 301 302 304 305 306 310 311 308 306 308 310 309 308 313 314 311 314 318 314 314 319 321 321 321 322 323 324 325 326 327 327 328 328
267 267 267 266 266 267 267 266 266 266 266 267 268 270 271 272 273 273 274 275 274 275 276 276 276 277 277 277 277 279 281 283 285 286 286 285 285 287 289 291 292 293 293 294 295 295 296 297 298 298 298 299 300 300 301 301 303 304 304 307 311 308 305 306 309 309 308 309 312 311 311 316 317 314 317 320 320 320 321 322 324 325 326 326 327 327 327 327
268 268 268 267 266 265 264 263 263 265 267 268 269 270 271 272 272 273 273 273 273 274 274 275 277 278 278 277 278 280 284 285 285 284 284 284 285 287 289 290 292 293 293 294 294 295 295 297 298 297 298 300 300 300 301 302 302 303 306 309 308 304 305 307 308 307 308 309 311 311 313 317 316 315 318 320 319 320 321 322 324 325 326 326 326 327 326 326
268 268 268 267 265 265 265 265 265 266 266 267 269 271 272 271 272 272 271 271 272 273 274 275 277 277 276 276 279 282 285 284 282 282 283 284 286 288 289 291 292 292 293 294 294 294 295 296 297 296 297 299 300 300 301 302 301 303 308 309 304 303 306 306 305 306 308 309 310 312 314 317 316 316 318 318 319 320 321 322 324 325 325 325 325 325 325 325
267 267 267 267 267 267 266 265 265 265 265 268 271 272 270 270 270 270 269 270 272 273 274 275 275 274 275 277 280 283 282 280 280 281 283 284 287 288 289 290 291 292 293 294 294 294 295 295 296 296 297 298 299 299 301 301 301 306 309 306 303 305 306 304 305 307 308 308 311 313 315 316 316 316 317 317 318 319 321 322 324 324 324 324 324 324 324 324
267 267 267 267 267 266 265 266 265 266 268 272 272 270 269 270 269 268 269 271 272 273 273 274 273 274 276 278 280 280 279 279 280 282 283 285 286 287 289 290 290 291 293 294 294 294 294 295 296 296 296 298 299 299 299 300 302 306 307 304 304 306 305 304 306 308 308 309 311 313 315 315 315 315 316 317 318 319 320 321 322 322 322 323 323 322 323 324
Height
10857 10858 10859 10860 10861 10861 10862 10862 10862 10863 10863 10863 10863 10863 10863 10864 10863 10863 10862 10862 10861 10861 10860 10859 10858 10856 10855 10855 10854 10853 10851 10850 10849 10847 10845 10843 10841 10839 10836 10834 10831 10829 10827 10825 10824 10822 10821 10819 10817 10816 10814 10812 10811 10811 10809 10808 10807 10806 10804 10802 10799 10796 10794 10794 10793 10791 10791 10792 10791 10791 10790 10788 10789 10789 10787 10785 10782 10778 10776 10774 10772 10771 10769 10767 10765 10763 10761 10758
10855 10856 10857 10858 10859 10860 10860 10860 10861 10861 10861 10861 10861 10861 10862 10862 10861 10861 10861 10860 10860 10859 10858 10857 10856 10855 10854 10853 10852 10851 10850 10849 10847 10845 10843 10841 10839 10837 10834 10832 10829 10827 10824 10822 10821 10819 10818 10816 10815 10813 10812 10810 10809 10808 10807 10805 10804 10803 10802 10800 10797 10794 10792 10792 10791 10789 10787 10788 10788 10788 10787 10785 10785 10785 10784 10781 10778 10776 10774 10771 10769 10768 10765 10763 10761 10760 10758 10755
10853 10854 10855 10856 10857 10858 10858 10858 10859 10859 10859 10859 10859 10859 10859 10860 10860 10859 10859 10859 10858 10857 10857 10856 10854 10853 10852 10851 10850 10849 10848 10847 10846 10844 10842 10840 10837 10835 10832 10830 10828 10826 10823 10821 10818 10817 10815 10813 10811 10810 10808 10807 10806 10805 10804 10802 10801 10799 10798 10797 10794 10791 10790 10789 10788 10786 10785 10784 10784 10784 10783 10782 10780 10780 10779 10776 10773 10772 10771 10769 10767 10765 10762 10760 10758 10756 10754 10752
10850 10851 10853 10854 10855 10856 10856 10856 10857 10857 10857 10857 10857 10857 10857 10857 10857 10857 10857 10857 10856 10856 10855 10854 10853 10852 10851 10850 10849 10848 10846 10845 10844 10842 10840 10838 10835 10833 10831 10828 10826 10824 10822 10820 10817 10815 10812 10810 10808 10806 10805 10803 10802 10801 10800 10798 10797 10795 10794 10794 10791 10788 10787 10786 10785 10783 10782 10781 10781 10780 10780 10780 10777 10774 10773 10771 10768 10767 10766 10765 10764 10761 10759 10756 10754 10751 10749 10747
10848 10849 10850 10851 10852 10853 10854 10854 10854 10855 10855 10855 10854 10854 10854 10855 10855 10855 10855 10854 10854 10854 10853 10852 10851 10850 10849 10848 10847 10846 10845 10843 10842 10840 10838 10836 10834 10831 10829 10827 10825 10822 10820 10818 10815 10813 10810 10808 10806 10804 10802 10800 10797 10797 10796 10795 10793 10790 10789 10790 10788 10785 10783 10783 10782 10781 10779 10779 10778 10777 10776 10776 10775 10771 10767 10765 10762 10761 10760 10760 10759 10756 10754 10751 10749 10747 10744 10742
10845 10846 10847 10848 10849 10850 10851 10852 10852 10852 10852 10852 10852 10852 10852 10852 10852 10853 10853 10852 10852 10851 10851 10850 10849 10848 10847 10846 10845 10844 10843 10842 10840 10838 10836 10834 10832 10830 10827 10825 10823 10820 10817 10815 10813 10811 10808 10806 10803 10801 10798 10797 10794 10793 10792 10791 10790 10787 10785 10785 10784 10782 10780 10779 10779 10778 10777 10776 10775 10774 10773 10772 10773 10769 10764 10760 10758 10756 10755 10754 10753 10750 10748 10745 10743 10741 10739 10736
10843 10844 10844 10845 10847 10848 10848 10849 10849 10850 10850 10850 10850 10850 10850 10850 10850 10850 10850 10850 10850 10849 10849 10848 10847 10846 10845 10844 10843 10842 10841 10840 10838 10837 10834 10832 10830 10828 10825 10823 10821 10818 10815 10813 10811 10809 10806 10804 10801 10799 10796 10794 10792 10790 10789 10788 10787 10785 10781 10780 10780 10779 10777 10775 10775 10775 10774 10773 10772 10771 10769 10769 10770 10768 10762 10756 10753 10752 10750 10750 10748 10745 10742 10739 10737 10735 10733 10731
10840 10841 10842 10843 10844 10845 10845 10846 10847 10847 10847 10847 10847 10847 10847 10847 10847 10847 10848 10848 10848 10847 10846 10846 10845 10844 10843 10842 10841 10840 10839 10838 10836 10834 10832 10830 10828 10825 10823 10820 10818 10815 10812 10810 10808 10806 10804 10802 10799 10796 10794 10792 10790 10788 10786 10785 10784 10782 10779 10777 10775 10776 10775 10773 10772 10772 10771 10771 10770 10769 10766 10765 10766 10765 10760 10753 10749 10748 10746 10745 10743 10741 10738 10735 10733 10731 10729 10726
10837 10838 10839 10840 10841 10842 10842 10843 10844 10844 10844 10844 10844 10844 10844 10844 10845 10845 10845 10845 10845 10845 10844 10843 10842 10842 10841 10839 10838 10838 10837 10835 10834 10832 10830 10828 10825 10823 10820 10817 10814 10812 10809 10807 10805 10803 10801 10799 10797 10794 10792 10790 10788 10786 10784 10782 10781 10780 10778 10774 10772 10771 10771 10770 10769 10769 10769 10768 10767 10766 10764 10762 10761 10761 10757 10751 10747 10744 10742 10741 10739 10736 10734 10731 10729 10727 10724 10722
10834 10835 10836 10837 10838 10838 10839 10840 10840 10841 10841 10841 10841 10841 10842 10842 10842 10842 10842 10842 10842 10842 10841 10841 10840 10839 10838 10837 10836 10835 10834 10833 10831 10829 10827 10825 10823 10820 10817 10814 10811 10809 10806 10804 10802 10800 10799 10797 10795 10792 10790 10788 10786 10784 10783 10780 10779 10778 10775 10773 10770 10768 10767 10766 10766 10765 10765 10765 10764 10762 10760 10758 10758 10757 10753 10749 10744 10741 10738 10736 10734 10731 10729 10726 10723 10721 10719 10716
10831 10832 10833 10834 10834 10835 10836 10836 10837 10837 10838 10838 10838 10839 10839 10839 10839 10839 10839 10840 10839 10839 10839 10838 10837 10836 10836 10834 10833 10832 10831 10830 10828 10827 10825 10823 10820 10818 10815 10812 10809 10806 10803 10801 10799 10797 10795 10794 10792 10790 10787 10786 10784 10781 10780 10778 10777 10775 10773 10771 10769 10766 10764 10763 10762 10762 10761 10761 10761 10759 10757 10755 10754 10754 10750 10746 10741 10737 10734 10732 10729 10726 10723 10720 10717 10714 10712 10710
10828 10829 10829 10830 10831 10832 10832 10833 10833 10834 10834 10835 10835 10835 10836 10836 10836 10836 10836 10837 10837 10837 10836 10835 10834 10833 10833 10832 10830 10829 10828 10827 10825 10824 10822 10820 10818 10815 10812 10809 10806 10804 10800 10798 10796 10794 10792 10790 10789 10787 10785 10783 10782 10779 10777 10775 10774 10773 10771 10769 10766 10764 10762 10760 10759 10758 10757 10757 10758 10757 10754 10752 10750 10749 10746 10742 10738 10734 10731 10728 10725 10722 10718 10715 10712 10709 10707 10705
10824 10825 10826 10826 10827 10828 10829 10829 10830 10830 10831 10831 10832 10832 10832 10833 10833 10833 10833 10833 10834 10834 10833 10832 10831 10830 10829 10829 10827 10826 10825 10823 10822 10821 10819 10817 10815 10813 10810 10807 10804 10801 10798 10795 10793 10791 10789 10787 10786 10784 10782 10780 10779 10777 10775 10773 10771 10770 10768 10766 10764 10762 10759 10757 10756 10755 10753 10752 10753 10753 10751 10747 10746 10744 10741 10738 10733 10730 10727 10724 10722 10719 10715 10711 10708 10705 10702 10700
10821 10822 10822 10823 10823 10824 10825 10825 10826 10827 10827 10828 10829 10829 10829 10829 10829 10829 10830 10830 10830 10831 10830 10830 10828 10827 10826 10826 10824 10823 10822 10820 10819 10817 10816 10814 10812 10810 10807 10804 10802 10799 10796 10793 10790 10788 10786 10784 10783 10780 10778 10776 10775 10774 10772 10770 10768 10767 10766 10764 10762 10760 10757 10754 10751 10749 10748 10746 10745 10745 10745 10742 10741 10739 10737 10733 10729 10725 10723 10720 10718 10715 10712 10708 10704 10701 10697 10694
10817 10818 10819 10819 10820 10820 10821 10821 10822 10823 10824 10824 10825 10826 10826 10826 10826 10826 10826 10826 10827 10827 10827 10826 10825 10823 10822 10822 10821 10820 10818 10817 10816 10814 10813 10811 10809 10807 10805 10802 10798 10796 10793 10790 10787 10785 10783 10781 10780 10778 10775 10773 10772 10770 10769 10768 10766 10763 10761 10760 10759 10758 10756 10753 10749 10745 10744 10743 10740 10739 10738 10737 10737 10735 10732 10729 10725 10721 10718 10715 10712 10709 10706 10702 10700 10696 10692 10688
10813 10814 10815 10815 10816 10817 10817 10818 10819 10819 10820 10820 10821 10822 10822 10822 10823 10823 10823 10823 10823 10823 10823 10823 10822 10820 10819 10818 10818 10816 10815 10813 10812 10811 10809 10807 10805 10803 10802 10799 10795 10793 10790 10788 10785 10782 10780 10778 10776 10775 10773 10770 10768 10767 10765 10763 10762 10760 10757 10755 10754 10753 10752 10751 10748 10744 10741 10741 10738 10736 10734 10732 10731 10730 10727 10723 10718 10714 10711 10707 10704 10700 10697 10694 10692 10689 10685 10681
10809 10810 10811 10812 10812 10813 10813 10814 10815 10816 10816 10817 10817 10818 10819 10819 10819 10819 10819 10820 10820 10820 10819 10819 10818 10817 10815 10814 10814 10812 10811 10809 10808 10807 10805 10803 10801 10800 10798 10796 10793 10789 10786 10785 10782 10779 10777 10775 10772 10770 10769 10767 10765 10764 10762 10759 10757 10756 10755 10752 10750 10748 10748 10747 10746 10742 10739 10737 10734 10732 10730 10726 10725 10724 10721 10716 10711 10706 10702 10699 10695 10691 10687 10684 10682 10680 10677 10674
10805 10806 10807 10807 10808 10809 10810 10811 10812 10812 10813 10813 10814 10814 10815 10816 10816 10816 10816 10816 10817 10816 10815 10815 10815 10813 10811 10810 10810 10808 10807 10805 10804 10802 10801 10799 10798 10796 10795 10792 10789 10787 10783 10780 10779 10776 10773 10771 10769 10766 10765 10764 10762 10761 10760 10757 10754 10752 10751 10749 10746 10744 10742 10742 10742 10738 10736 10734 10729 10726 10723 10718 10716 10716 10713 10709 10704 10699 10696 10693 10689 10685 10681 10677 10675 10673 10670 10667
10801 10802 10802 10803 10804 10805 10806 10807 10808 10809 10809 10810 10810 10810 10811 10812 10812 10812 10812 10813 10813 10813 10812 10810 10810 10809 10807 10806 10805 10804 10802 10801 10799 10798 10797 10795 10794 10792 10790 10789 10786 10784 10781 10777 10776 10774 10771 10768 10766 10764 10761 10760 10759 10757 10755 10754 10751 10749 10747 10745 10743 10740 10736 10735 10735 10733 10731 10729 10724 10721 10718 10712 10708 10709 10707 10703 10699 10695 10692 10689 10685 10681 10677 10673 10669 10667 10663 10660
10797 10798 10799 10799 10800 10801 10802 10803 10804 10805 10805 10805 10806 10807 10807 10807 10809 10809 10808 10809 10809 10809 10808 10807 10806 10805 10804 10802 10801 10800 10798 10797 10795 10794 10792 10791 10790 10788 10786 10785 10782 10780 10778 10775 10772 10770 10768 10766 10763 10761 10758 10756 10754 10753 10751 10748 10746 10745 10742 10740 10738 10736 10733 10729 10729 10728 10725 10724 10720 10717 10715 10709 10704 10704 10702 10699 10694 10690 10687 10683 10680 10676 10672 10669 10665 10661 10658 10654
10793 10794 10794 10795 10796 10797 10798 10799 10800 10801 10801 10801 10802 10803 10803 10803 10804 10805 10805 10804 10804 10805 10804 10803 10802 10801 10800 10799 10797 10797 10795 10793 10791 10790 10788 10786 10786 10784 10782 10780 10778 10776 10773 10771 10769 10766 10764 10763 10760 10758 10755 10753 10750 10749 10746 10744 10741 10740 10738 10736 10733 10732 10730 10726 10725 10724 10721 10719 10716 10713 10712 10706 10700 10699 10695 10692 10689 10685 10681 10678 10675 10670 10666 10663 10659 10656 10652 10647
10789 10790 10790 10791 10792 10793 10794 10795 10796 10797 10797 10797 10797 10798 10799 10799 10800 10802 10802 10799 10799 10799 10799 10798 10798 10797 10796 10795 10794 10793 10791 10788 10786 10785 10784 10782 10780 10780 10778 10776 10774 10772 10769 10767 10766 10762 10760 10759 10757 10754 10751 10749 10747 10745 10742 10739 10736 10734 10732 10731 10728 10726 10725 10722 10720 10720 10717 10715 10713 10711 10708 10703 10697 10694 10689 10685 10683 10679 10675 10672 10669 10664 10660 10656 10653 10649 10645 10640
10785 10785 10786 10787 10788 10789 10790 10791 10792 10793 10793 10793 10793 10793 10794 10795 10796 10797 10798 10798 10794 10792 10792 10792 10791 10791 10790 10790 10789 10787 10785 10783 10781 10779 10779 10778 10776 10774 10773 10771 10769 10767 10766 10763 10761 10759 10756 10755 10753 10750 10747 10744 10742 10740 10738 10735 10731 10728 10726 10724 10722 10719 10719 10718 10715 10715 10712 10709 10708 10708 10706 10702 10695 10689 10683 10679 10676 10672 10668 10666 10662 10658 10654 10651 10647 10643 10637 10632
10781 10781 10782 10783 10784 10786 10786 10787 10788 10789 10789 10790 10790 10789 10790 10791 10792 10793 10794 10795 10793 10787 10786 10785 10784 10784 10783 10783 10783 10781 10780 10777 10776 10774 10773 10773 10772 10770 10768 10767 10765 10762 10761 10759 10757 10755 10753 10751 10749 10745 10742 10739 10737 10735 10733 10731 10727 10723 10720 10718 10717 10714 10712 10712 10711 10711 10707 10702 10700 10699 10702 10702 10693 10683 10677 10672 10670 10666 10662 10660 10656 10652 10648 10645 10642 10636 10630 10625
10777 10777 10778 10779 10780 10781 10782 10784 10784 10784 10785 10786 10785 10785 10785 10786 10787 10789 10789 10791 10791 10784 10781 10780 10778 10777 10777 10777 10777 10776 10774 10772 10771 10769 10768 10768 10767 10765 10763 10763 10761 10758 10757 10756 10753 10750 10749 10746 10744 10741 10737 10734 10732 10730 10727 10726 10723 10719 10715 10712 10710 10708 10706 10705 10704 10705 10703 10699 10694 10688 10693 10700 10692 10679 10674 10669 10666 10661 10656 10654 10651 10647 10642 10638 10634 10629 10623 10617
10773 10773 10774 10774 10776 10777 10778 10779 10779 10780 10781 10780 10781 10780 10780 10781 10782 10784 10784 10787 10788 10781 10777 10775 10772 10772 10772 10771 10771 10770 10769 10767 10765 10764 10762 10762 10761 10759 10758 10757 10757 10755 10753 10752 10749 10746 10745 10741 10738 10736 10733 10729 10727 10724 10722 10720 10718 10715 10711 10706 10704 10702 10700 10698 10697 10697 10696 10696 10689 10679 10682 10694 10690 10676 10668 10664 10660 10655 10649 10647 10645 10639 10635 10631 10626 10620 10614 10608
10768 10768 10769 10770 10771 10772 10773 10774 10774 10775 10775 10775 10776 10775 10776 10776 10777 10779 10779 10782 10785 10779 10772 10769 10767 10766 10766 10766 10766 10764 10763 10762 10760 10759 10757 10757 10755 10753 10753 10751 10751 10750 10748 10748 10746 10741 10741 10737 10733 10731 10727 10724 10721 10718 10716 10714 10711 10709 10706 10702 10699 10696 10695 10693 10692 10691 10690 10691 10684 10672 10670 10680 10683 10671 10659 10656 10652 10645 10641 10638 10636 10631 10626 10622 10617 10611 10605 10599
10762 10763 10764 10765 10766 10766 10767 10768 10768 10769 10770 10771 10771 10770 10771 10771 10772 10773 10773 10777 10781 10775 10767 10764 10762 10761 10760 10760 10760 10759 10757 10756 10755 10754 10752 10752 10749 10747 10746 10744 10744 10744 10742 10743 10742 10737 10736 10733 10729 10726 10723 10719 10716 10712 10710 10707 10705 10703 10700 10697 10694 10691 10689 10686 10687 10685 10684 10686 10679 10669 10664 10668 10673 10663 10651 10649 10644 10635 10632 10630 10627 10623 10618 10614 10609 10603 10597 10590
10757 10758 10759 10760 10761 10761 10761 10762 10761 10762 10764 10765 10765 10765 10765 10766 10767 10767 10767 10772 10774 10770 10764 10759 10757 10756 10756 10755 10755 10753 10751 10750 10749 10748 10747 10747 10744 10741 10740 10738 10737 10737 10736 10736 10737 10734 10731 10728 10725 10722 10718 10714 10711 10707 10704 10701 10699 10696 10694 10691 10688 10686 10683 10680 10680 10678 10678 10680 10673 10666 10660 10659 10664 10657 10643 10641 10635 10627 10624 10622 10620 10615 10611 10607 10602 10595 10588 10580
10751 10752 10753 10754 10755 10755 10755 10755 10755 10757 10758 10759 10760 10760 10760 10761 10761 10761 10763 10765 10764 10762 10761 10756 10752 10753 10752 10750 10749 10747 10746 10745 10743 10742 10741 10741 10738 10734 10732 10731 10730 10730 10729 10728 10730 10730 10726 10723 10720 10716 10712 10709 10706 10701 10698 10695 10692 10689 10687 10685 10682 10679 10675 10674 10674 10670 10671 10674 10667 10661 10654 10649 10654 10650 10638 10633 10626 10620 10617 10614 10612 10608 10603 10599 10593 10586 10577 10569
10745 10746 10747 10748 10749 10750 10749 10748 10749 10750 10751 10752 10753 10754 10755 10755 10755 10756 10758 10757 10754 10756 10754 10749 10749 10749 10747 10746 10744 10741 10740 10740 10738 10736 10735 10735 10733 10728 10724 10723 10723 10724 10724 10721 10722 10724 10721 10717 10714 10711 10707 10704 10700 10696 10692 10689 10685 10682 10679 10677 10676 10672 10669 10669 10668 10663 10664 10664 10660 10655 10649 10644 10643 10639 10632 10626 10617 10612 10611 10607 10603 10599 10595 10590 10583 10575 10566 10557
10738 10739 10740 10741 10743 10743 10742 10742 10743 10743 10744 10746 10747 10749 10749 10749 10752 10753 10750 10746 10746 10750 10747 10743 10744 10744 10742 10742 10739 10736 10734 10734 10732 10730 10729 10728 10727 10723 10717 10714 10712 10714 10718 10717 10716 10718 10716 10711 10707 10705 10702 10698 10694 10690 10686 10683 10679 10676 10672 10669 10667 10664 10663 10665 10661 10658 10658 10656 10654 10649 10643 10640 10636 10629 10623 10615 10607 10605 10603 10597 10594 10589 10584 10579 10572 10564 10554 10545
10732 10733 10733 10735 10736 10736 10735 10735 10736 10736 10737 10738 10740 10743 10743 10745 10750 10748 10742 10736 10737 10742 10742 10738 10738 10738 10737 10737 10733 10730 10728 10727 10727 10725 10723 10722 10721 10717 10711 10706 10702 10701 10706 10710 10711 10713 10712 10708 10702 10699 10697 10693 10689 10685 10681 10678 10673 10670 10667 10662 10657 10653 10654 10658 10654 10652 10652 10650 10647 10642 10636 10633 10629 10623 10615 10603 10595 10594 10592 10588 10584 10579 10573 10568 10562 10552 10542 10534
10725 10726 10727 10728 10728 10728 10728 10727 10727 10728 10729 10731 10734 10736 10737 10742 10745 10741 10735 10730 10728 10732 10734 10732 10732 10733 10732 10730 10727 10723 10720 10721 10722 10718 10716 10716 10715 10712 10706 10699 10694 10691 10693 10699 10704 10706 10707 10704 10698 10694 10693 10688 10684 10679 10675 10672 10668 10665 10661 10655 10651 10644 10641 10645 10645 10643 10643 10644 10642 10634 10628 10624 10619 10616 10607 10594 10586 10581 10580 10579 10572 10567 10563 10557 10549 10539 10529 10522
10718 10719 10720 10721 10720 10720 10719 10718 10719 10720 10721 10724 10726 10729 10734 10738 10737 10731 10728 10726 10721 10723 10724 10723 10725 10726 10725 10723 10720 10716 10712 10713 10715 10712 10710 10709 10708 10707 10701 10693 10687 10683 10682 10686 10692 10696 10698 10698 10692 10688 10686 10682 10678 10674 10669 10664 10661 10659 10656 10648 10644 10639 10634 10633 10634 10632 10630 10634 10637 10630 10623 10618 10612 10608 10599 10586 10578 10572 10570 10569 10560 10556 10554 10546 10536 10526 10516 10509
10711 10713 10714 10714 10712 10711 10710 10710 10712 10712 10714 10717 10719 10724 10730 10731 10727 10722 10720 10719 10715 10715 10715 10716 10717 10716 10716 10716 10713 10708 10704 10705 10707 10705 10704 10703 10702 10701 10694 10686 10681 10675 10673 10674 10678 10682 10686 10690 10686 10681 10679 10675 10670 10667 10663 10657 10652 10650 10648 10641 10636 10632 10627 10623 10624 10623 10617 10618 10626 10625 10617 10611 10605 10601 10592 10577 10568 10566 10564 10558 10551 10548 10544 10535 10524 10514 10506 10499
10704 10707 10708 10707 10703 10701 10701 10702 10703 10705 10707 10710 10713 10720 10725 10724 10719 10712 10710 10710 10710 10709 10708 10709 10710 10708 10707 10708 10706 10701 10697 10697 10698 10696 10696 10695 10696 10695 10688 10680 10675 10669 10666 10666 10667 10668 10672 10680 10681 10675 10671 10668 10662 10659 10655 10650 10644 10640 10637 10633 10628 10624 10620 10615 10613 10613 10607 10603 10612 10616 10609 10604 10598 10590 10581 10569 10561 10560 10557 10548 10544 10542 10534 10524 10514 10504 10497 10490
10696 10700 10703 10701 10694 10690 10692 10694 10695 10697 10700 10703 10709 10715 10716 10716 10711 10703 10700 10702 10703 10702 10701 10701 10700 10699 10700 10699 10696 10693 10690 10690 10690 10688 10687 10687 10687 10686 10680 10674 10669 10663 10659 10659 10659 10658 10657 10667 10675 10670 10663 10660 10655 10651 10647 10642 10637 10633 10628 10624 10620 10614 10611 10609 10603 10600 10594 10589 10596 10602 10600 10599 10592 10577 10565 10559 10554 10550 10544 10539 10537 10533 10523 10513 10505 10495 10488 10480
10688 10692 10697 10695 10683 10679 10684 10687 10688 10690 10694 10700 10705 10706 10707 10706 10702 10696 10693 10693 10693 10694 10694 10693 10690 10690 10692 10690 10686 10684 10682 10682 10683 10680 10679 10679 10678 10677 10672 10666 10661 10655 10653 10651 10650 10649 10645 10651 10665 10665 10657 10653 10649 10644 10640 10634 10628 10624 10619 10616 10612 10604 10602 10602 10597 10590 10580 10575 10579 10582 10586 10593 10585 10567 10554 10549 10546 10538 10530 10529 10527 10520 10513 10503 10494 10486 10477 10468
10680 10682 10690 10688 10674 10669 10673 10677 10681 10685 10690 10695 10697 10698 10697 10697 10695 10690 10686 10684 10685 10686 10686 10684 10683 10682 10682 10679 10677 10675 10673 10675 10676 10671 10670 10670 10668 10668 10666 10659 10652 10647 10646 10644 10641 10639 10635 10637 10650 10655 10649 10646 10643 10636 10632 10627 10620 10615 10611 10608 10602 10595 10592 10593 10593 10585 10569 10565 10567 10561 10570 10583 10570 10553 10547 10539 10533 10526 10519 10518 10515 10507 10500 10490 10481 10473 10464 10454
10668 10673 10683 10679 10664 10660 10662 10666 10675 10680 10683 10688 10690 10688 10687 10687 10687 10685 10680 10676 10677 10678 10677 10676 10675 10674 10672 10669 10667 10665 10665 10668 10668 10663 10661 10661 10658 10659 10658 10651 10645 10640 10638 10636 10633 10630 10625 10626 10636 10642 10639 10636 10634 10629 10624 10619 10612 10608 10605 10601 10593 10587 10583 10579 10582 10580 10564 10559 10557 10545 10557 10573 10554 10538 10538 10527 10517 10515 10511 10507 10502 10494 10486 10475 10467 10459 10450 10441
10658 10665 10672 10667 10657 10653 10652 10658 10669 10673 10675 10681 10680 10676 10676 10678 10679 10678 10673 10670 10669 10669 10668 10668 10667 10664 10662 10659 10656 10655 10655 10657 10658 10653 10649 10652 10652 10651 10647 10641 10637 10634 10630 10628 10627 10622 10617 10617 10623 10628 10628 10624 10623 10621 10616 10609 10605 10602 10600 10594 10585 10581 10576 10568 10567 10566 10560 10556 10547 10536 10548 10559 10543 10532 10530 10516 10506 10505 10502 10496 10488 10480 10471 10461 10454 10447 10437 10428
10651 10655 10657 10656 10652 10648 10645 10653 10662 10663 10667 10669 10666 10665 10667 10668 10670 10669 10665 10662 10661 10660 10659 10660 10659 10654 10652 10649 10646 10647 10645 10644 10646 10641 10637 10643 10646 10640 10635 10631 10628 10625 10621 10619 10619 10614 10609 10609 10611 10615 10616 10613 10612 10610 10604 10598 10595 10595 10592 10585 10578 10574 10569 10564 10556 10549 10551 10552 10538 10531 10540 10540 10529 10526 10519 10504 10498 10496 10489 10482 10474 10465 10458 10450 10442 10435 10426 10417
10640 10642 10646 10649 10647 10642 10642 10649 10652 10651 10655 10655 10654 10658 10659 10656 10659 10660 10655 10653 10652 10651 10651 10653 10650 10644 10642 10639 10636 10637 10634 10630 10632 10631 10630 10634 10635 10629 10623 10620 10619 10618 10614 10611 10608 10604 10601 10601 10600 10599 10599 10602 10605 10600 10592 10589 10587 10586 10583 10576 10572 10567 10561 10557 10547 10538 10541 10542 10531 10527 10528 10523 10517 10513 10502 10490 10489 10486 10476 10467 10461 10453 10445 10439 10432 10424 10416 10407
10627 10631 10638 10642 10639 10637 10640 10645 10641 10639 10644 10643 10643 10649 10649 10646 10650 10650 10644 10643 10645 10644 10643 10643 10640 10635 10633 10631 10628 10626 10622 10617 10617 10622 10625 10624 10621 10616 10611 10609 10610 10610 10607 10602 10597 10594 10593 10593 10592 10585 10578 10583 10590 10585 10579 10578 10577 10576 10574 10568 10563 10558 10552 10545 10535 10530 10528 10527 10529 10525 10511 10511 10512 10496 10483 10481 10479 10473 10463 10454 10450 10443 10435 10429 10422 10413 10405 10396
10615 10621 10631 10633 10629 10629 10633 10635 10630 10630 10635 10631 10630 10638 10640 10639 10642 10640 10634 10635 10637 10635 10632 10633 10631 10627 10625 10622 10617 10613 10613 10609 10607 10612 10616 10611 10604 10602 10600 10600 10601 10599 10596 10591 10586 10584 10582 10584 10585 10576 10566 10569 10570 10564 10561 10561 10561 10562 10560 10557 10554 10548 10541 10531 10523 10523 10514 10508 10526 10525 10497 10500 10508 10480 10463 10470 10468 10460 10452 10443 10438 10432 10424 10418 10410 10401 10393 10384
10604 10613 10622 10620 10614 10616 10624 10626 10621 10621 10622 10615 10616 10629 10634 10632 10634 10631 10627 10628 10626 10622 10622 10624 10624 10619 10615 10611 10603 10602 10606 10604 10602 10605 10604 10596 10589 10588 10590 10593 10591 10588 10584 10579 10576 10572 10568 10574 10576 10565 10558 10562 10558 10550 10547 10544 10545 10549 10545 10544 10547 10538 10526 10519 10515 10514 10501 10493 10515 10517 10491 10491 10494 10467 10452 10456 10452 10446 10440 10431 10426 10419 10412 10406 10397 10389 10381 10372
10596 10604 10610 10605 10601 10606 10613 10615 10610 10606 10606 10605 10609 10621 10626 10625 10624 10621 10620 10618 10613 10612 10612 10612 10614 10611 10604 10598 10591 10593 10601 10599 10595 10596 10589 10581 10578 10578 10582 10584 10581 10578 10574 10569 10567 10561 10554 10561 10566 10553 10547 10553 10548 10539 10536 10531 10532 10537 10533 10533 10537 10526 10513 10511 10508 10503 10491 10486 10499 10501 10489 10486 10474 10452 10448 10447 10437 10433 10428 10419 10414 10407 10399 10393 10386 10378 10370 10362
10587 10593 10597 10591 10588 10593 10596 10598 10595 10594 10600 10600 10600 10612 10619 10615 10614 10612 10609 10605 10603 10604 10600 10599 10607 10603 10591 10585 10581 10587 10598 10591 10581 10582 10575 10568 10569 10571 10572 10575 10572 10568 10564 10559 10556 10550 10543 10548 10551 10540 10535 10542 10539 10528 10525 10522 10519 10525 10528 10525 10519 10509 10504 10502 10498 10491 10483 10480 10485 10482 10480 10480 10461 10440 10440 10437 10424 10419 10414 10408 10402 10395 10387 10381 10374 10367 10360 10352
10576 10579 10580 10572 10571 10581 10583 10584 10584 10586 10592 10590 10592 10607 10610 10602 10604 10601 10590 10589 10596 10597 10590 10591 10598 10589 10576 10575 10576 10585 10594 10578 10563 10568 10565 10557 10561 10564 10562 10564 10563 10558 10555 10551 10546 10539 10533 10534 10537 10527 10521 10529 10530 10518 10515 10512 10506 10515 10526 10516 10498 10494 10497 10492 10485 10481 10474 10469 10471 10467 10464 10465 10452 10435 10431 10425 10413 10405 10400 10394 10390 10382 10375 10369 10362 10356 10348 10341
10563 10561 10561 10553 10558 10571 10570 10569 10572 10572 10578 10586 10592 10599 10594 10590 10595 10585 10570 10579 10590 10586 10581 10584 10584 10573 10565 10569 10575 10580 10579 10560 10549 10556 10556 10548 10553 10555 10552 10554 10553 10548 10545 10542 10536 10530 10523 10520 10521 10514 10506 10513 10517 10508 10504 10499 10494 10507 10519 10502 10483 10483 10485 10479 10474 10472 10464 10456 10457 10455 10450 10446 10439 10429 10423 10415 10405 10396 10389 10383 10378 10372 10365 10359 10353 10345 10338 10331
10547 10543 10546 10537 10537 10552 10556 10556 10557 10558 10573 10589 10585 10580 10580 10583 10583 10567 10558 10572 10581 10574 10570 10570 10566 10561 10559 10565 10571 10569 10559 10545 10541 10546 10546 10542 10544 10545 10543 10544 10542 10539 10536 10531 10524 10520 10514 10508 10507 10500 10490 10494 10501 10496 10490 10485 10486 10500 10504 10487 10476 10474 10469 10466 10467 10464 10454 10445 10443 10442 10438 10432 10425 10419 10412 10404 10395 10387 10381 10376 10370 10362 10356 10351 10344 10337 10329 10321